Wind_Speed
73 73 73 73 72 72 73 73 73 73 73 74 75 75 76 76 77 77 78 78 79 79 80 81 82 82 83 84 85 85 85 86 86 87 87 88 89 90 91 92 93 93 94 94 95 96 97 98 100 101 102 103 104 106 107 108 109 110 111 112 113 114 114 115 115 116 116 117 118 119 120 122 123 124 125 126 128 129 130 131 133 134 135 137 139 141
74 74 73 73 73 73 73 73 73 73 74 75 75 76 76 77 77 78 79 79 80 80 81 82 82 83 84 85 85 85 86 86 86 87 88 89 90 91 92 92 93 94 94 95 96 97 98 99 100 102 103 104 105 106 107 108 110 111 112 113 114 115 115 116 116 117 117 118 119 121 122 123 124 126 127 128 129 130 131 132 134 135 137 139 141 143
75 75 74 74 74 73 74 74 74 75 75 76 77 77 77 77 78 79 79 80 81 81 82 82 83 84 85 85 85 85 86 86 87 88 88 89 90 91 92 93 94 94 95 96 97 98 99 100 101 103 104 105 106 107 108 109 110 112 113 114 115 115 116 116 117 118 118 120 121 122 124 125 126 127 128 129 130 131 132 134 135 137 138 140 143 145
77 76 76 76 75 75 75 75 76 76 77 77 78 78 78 78 79 80 80 81 81 82 82 83 84 84 85 85 85 86 86 86 87 88 89 90 91 92 92 93 94 95 96 97 98 99 100 101 102 104 105 106 107 108 109 110 111 113 114 115 116 116 117 117 118 119 120 121 122 123 125 126 127 128 129 130 131 132 134 135 137 138 140 142 144 147
77 77 77 77 76 76 77 77 77 78 78 78 78 78 79 79 80 80 81 81 81 82 83 83 84 85 85 85 86 86 86 87 88 89 90 91 92 92 93 94 94 95 96 97 99 100 101 102 103 105 106 107 108 109 110 111 113 114 115 116 117 117 117 118 119 120 121 122 123 125 126 127 128 129 130 131 132 133 135 136 138 140 142 144 146 148
78 78 78 78 78 78 78 78 79 79 79 79 79 79 80 80 80 81 81 82 82 83 83 84 85 85 85 85 86 86 87 88 89 90 91 92 92 93 93 94 95 96 97 98 100 101 102 103 104 105 106 107 109 110 111 113 114 115 116 117 117 118 118 119 120 121 122 123 125 126 127 128 129 130 131 132 133 134 136 138 140 142 144 146 148 150
79 79 79 79 79 79 79 79 80 80 79 80 80 80 81 81 81 81 82 82 83 83 84 85 85 85 85 85 86 87 87 89 90 91 92 92 92 93 93 94 96 97 98 100 101 102 103 104 105 106 107 108 110 111 113 114 115 116 117 117 118 118 119 119 120 122 123 124 126 127 128 129 130 131 132 133 134 136 137 139 141 143 145 148 150 151
79 80 80 80 80 80 80 80 80 80 80 80 80 81 81 82 82 82 82 83 83 84 84 85 85 85 85 86 86 87 88 90 91 92 92 92 93 93 94 95 97 98 99 101 102 103 104 105 106 107 108 109 111 112 114 115 116 117 117 118 118 119 119 120 122 123 124 125 127 128 129 130 131 132 133 134 135 137 139 141 143 145 147 149 150 151
80 80 80 80 80 80 80 81 81 81 81 81 81 81 82 82 82 83 83 83 84 84 84 85 85 86 86 87 87 88 90 91 92 92 92 93 93 94 95 96 97 99 100 101 102 103 104 105 106 108 109 111 112 114 115 116 117 117 118 118 119 119 120 121 123 124 125 126 128 129 130 130 131 132 134 135 136 138 140 142 144 147 149 150 150 150
80 80 80 80 80 80 80 81 82 82 82 82 82 82 82 82 82 83 83 84 84 85 85 85 86 87 87 88 89 90 91 92 92 93 93 93 94 94 96 97 98 100 101 102 103 104 105 106 107 109 110 112 114 115 116 117 117 118 118 119 119 120 121 122 124 125 126 127 128 129 130 131 132 133 134 136 138 139 142 144 146 148 150 150 150 148
80 80 80 80 80 81 81 81 82 82 82 82 83 83 82 82 82 83 83 84 85 85 86 86 87 87 88 89 90 91 91 92 93 93 93 94 94 95 97 98 99 100 101 102 103 104 105 107 108 110 112 113 115 116 117 117 118 118 118 119 120 121 122 123 125 126 127 128 129 130 131 132 133 134 135 137 139 141 143 145 147 149 150 150 148 146
80 80 80 80 81 82 82 82 82 83 83 82 82 82 82 83 83 83 83 84 85 86 87 87 88 88 89 90 91 91 92 92 93 93 94 94 95 96 98 99 100 101 102 103 104 105 107 108 110 112 113 115 116 116 117 117 118 118 119 120 121 122 123 124 126 127 128 129 130 131 132 133 134 135 137 138 140 143 145 147 148 149 149 148 146 144
80 80 80 81 82 82 82 82 82 82 82 82 82 82 82 83 84 84 84 85 86 87 87 88 89 89 90 91 91 92 92 93 93 93 94 95 96 97 98 100 101 102 103 104 105 107 108 110 111 113 114 115 116 117 117 118 118 119 120 121 122 123 124 125 127 128 129 130 131 131 132 133 135 136 138 140 142 144 146 148 149 149 148 146 144 141
81 81 81 82 82 82 82 82 82 82 82 82 83 83 84 84 85 85 85 86 87 88 88 88 89 90 91 91 92 92 92 93 93 94 95 96 97 98 99 100 101 103 104 105 106 108 110 111 112 114 115 116 116 117 117 118 119 119 120 121 123 124 125 126 128 129 129 130 131 132 133 134 136 137 139 141 143 145 147 148 149 148 146 144 141 138
82 82 82 82 82 82 82 82 83 83 83 83 84 84 85 85 85 86 86 87 88 88 89 89 90 91 91 92 92 92 93 93 94 95 95 97 98 98 99 100 102 104 105 106 107 109 111 112 113 114 115 115 116 117 117 118 119 120 121 122 123 125 126 127 128 129 130 131 132 133 134 135 137 138 141 143 145 147 148 149 148 146 144 141 138 135
83 82 82 83 83 83 83 83 83 84 84 84 85 85 85 86 86 86 87 87 88 88 89 89 90 91 92 93 93 93 93 94 94 95 96 97 98 99 100 101 103 105 106 107 109 110 112 113 114 114 115 115 116 117 118 119 120 121 122 123 124 126 127 128 129 130 131 131 132 133 134 136 138 140 142 144 146 147 148 148 146 144 142 138 135 132
84 83 83 83 84 84 84 84 84 85 85 85 85 85 86 86 86 87 87 87 88 88 89 89 90 91 92 94 94 94 93 94 95 96 97 98 99 100 101 102 104 106 107 109 110 111 112 113 114 114 115 115 116 117 118 119 120 122 123 124 125 126 127 129 129 130 131 132 133 134 135 137 139 141 143 145 147 148 148 146 144 142 138 135 132 128
85 85 85 85 85 85 85 85 86 86 86 86 86 86 86 86 86 87 87 87 88 88 89 90 91 92 93 93 94 95 94 94 95 96 98 99 100 101 103 104 105 107 108 110 111 112 112 113 113 114 115 116 116 117 119 120 121 122 123 125 126 127 128 129 130 130 131 132 133 135 137 138 140 142 144 146 147 147 146 144 142 138 135 132 128 124
86 86 86 86 86 86 86 86 86 86 86 86 86 86 86 87 87 87 87 88 88 89 90 91 92 93 93 93 94 95 95 95 96 97 98 99 101 103 104 105 106 108 110 111 111 112 112 113 113 114 115 116 117 118 119 120 122 123 124 125 126 127 128 129 130 131 132 133 134 136 137 139 142 143 145 146 147 146 144 141 138 135 132 128 124 119
86 87 87 87 87 87 87 87 87 87 87 87 87 86 86 86 87 87 87 88 89 90 91 92 93 94 94 94 95 95 96 96 96 97 99 100 102 104 105 106 108 109 110 111 112 112 112 112 113 114 115 116 117 118 120 121 122 123 125 126 127 128 129 130 130 131 132 133 135 137 139 141 142 144 146 146 146 144 141 138 135 131 128 124 119 114
87 87 88 88 88 87 88 88 88 88 87 87 86 86 86 87 87 88 88 89 90 91 93 93 94 94 95 94 95 96 96 96 97 98 100 102 103 105 107 108 109 110 110 111 111 111 112 112 113 114 115 117 118 119 120 121 123 124 125 126 127 128 129 130 130 131 133 134 136 138 140 142 143 145 146 145 144 141 138 135 131 128 123 119 114 110
88 88 89 89 88 88 88 88 88 87 87 86 86 86 87 87 88 89 90 91 91 92 93 94 94 95 94 94 95 96 97 97 98 100 101 103 105 107 109 109 109 109 110 110 111 111 112 112 113 114 116 117 118 120 121 122 123 124 126 127 128 129 129 130 131 132 133 135 137 139 141 142 144 145 145 144 141 138 134 131 127 123 119 114 109 105
88 89 89 89 89 88 88 88 88 87 87 87 87 87 88 88 89 90 91 92 92 93 94 94 94 94 94 95 96 97 98 99 100 102 103 104 106 108 109 109 109 108 109 109 110 111 112 113 114 115 116 118 119 120 121 123 124 125 126 127 128 129 129 130 131 132 134 136 138 140 141 143 144 144 143 141 138 134 131 127 123 119 114 109 105 101
89 89 89 89 89 89 88 88 88 87 87 87 88 88 88 89 89 90 91 92 93 93 94 94 94 94 95 96 97 98 100 101 102 103 104 105 107 108 108 108 107 108 108 109 110 111 112 113 114 116 117 118 120 121 122 123 124 125 126 127 128 129 129 130 132 133 135 137 139 140 142 143 144 143 141 138 134 131 127 123 119 114 109 105 101 98
88 89 89 89 89 88 88 88 88 88 88 88 88 88 89 89 90 91 92 93 93 94 94 94 94 95 96 97 99 100 101 102 103 103 104 105 106 107 107 107 107 107 108 110 111 111 112 114 115 117 118 119 120 121 122 124 125 126 127 127 128 129 130 131 132 134 136 137 139 141 142 143 142 140 137 134 130 127 123 119 114 109 105 101 97 94
88 89 89 89 88 88 88 88 88 88 88 88 88 88 89 89 90 91 92 93 93 94 94 94 95 96 97 99 100 101 102 103 103 103 104 104 105 106 107 107 107 107 108 110 111 112 113 114 116 117 118 120 121 122 123 124 125 126 126 127 128 129 130 131 133 135 136 138 140 141 142 142 140 137 134 130 127 123 119 114 109 105 101 97 94 92
88 89 89 89 88 88 88 88 88 88 89 89 88 88 89 89 89 90 91 92 93 93 94 95 96 97 99 100 100 101 102 102 103 103 104 104 104 105 106 107 107 108 109 110 111 112 113 114 116 118 119 120 121 122 123 124 125 126 126 127 128 129 130 132 134 135 137 139 140 141 141 140 137 133 130 126 123 119 114 109 105 101 97 94 91 89
88 88 89 88 88 87 87 88 89 89 90 90 89 89 90 90 90 91 92 93 94 94 95 96 97 98 99 100 101 101 102 102 103 103 104 104 104 105 106 107 108 108 109 110 112 113 114 115 116 118 119 120 121 123 123 124 125 126 126 127 128 129 131 133 134 136 138 139 140 140 139 136 133 129 126 123 119 114 110 105 101 97 94 91 89 86
88 88 88 88 88 87 88 88 89 90 90 91 91 91 91 92 92 93 94 95 95 96 97 98 99 99 100 100 101 101 102 102 103 103 104 103 104 105 107 107 108 109 109 110 112 113 115 116 117 118 119 120 121 123 123 124 125 126 126 127 128 130 132 133 135 137 138 139 140 139 136 133 129 126 122 119 114 110 105 101 97 94 91 88 86 84
87 88 88 88 88 88 88 89 89 90 91 92 92 93 94 94 94 95 96 96 97 98 99 99 100 100 100 100 100 101 102 103 103 103 103 103 104 106 107 108 108 109 110 111 112 114 116 117 118 119 119 120 121 122 123 124 125 126 126 128 129 131 132 134 136 137 138 139 138 136 132 128 125 122 118 114 110 105 101 97 94 91 88 86 84 82
86 87 87 88 88 89 89 89 90 91 92 93 94 94 95 95 96 96 97 98 98 98 99 99 99 99 99 99 99 100 101 103 104 104 103 103 104 106 107 107 108 109 110 111 112 114 116 118 119 119 120 121 121 122 123 124 125 126 127 128 130 131 133 135 136 137 138 137 135 132 128 125 121 118 114 110 105 101 97 94 91 88 86 84 82 79
86 87 88 88 89 90 90 90 91 92 93 94 94 95 95 96 96 97 97 98 98 98 98 98 98 98 98 98 99 100 101 102 103 104 103 103 104 106 107 107 108 109 111 112 113 114 116 117 119 120 120 121 121 122 123 124 125 126 127 129 130 132 134 135 136 137 136 134 131 127 124 121 118 114 110 106 101 97 94 91 88 86 84 82 79 77
87 88 89 90 90 91 91 91 92 93 93 94 95 95 95 95 96 96 96 97 97 96 96 96 97 97 98 99 99 100 101 102 103 103 103 103 104 105 106 107 108 109 111 113 114 115 116 117 118 119 120 121 121 122 123 124 125 126 128 129 131 133 134 135 136 136 134 131 127 123 120 117 114 110 106 101 97 94 91 88 85 83 82 79 77 74
89 90 91 91 91 92 92 92 93 93 94 94 95 95 95 95 95 95 95 95 96 95 96 96 96 97 98 99 100 101 101 102 103 103 103 103 103 105 106 107 109 110 112 114 115 116 116 117 118 119 120 121 121 122 123 124 125 127 128 130 132 133 135 135 135 133 130 127 123 120 117 113 110 106 102 98 94 91 88 85 83 81 79 77 75 72
92 92 92 92 92 92 93 93 93 94 94 94 94 94 94 94 94 94 95 95 95 96 96 97 97 98 98 99 99 100 100 101 102 102 102 102 103 105 106 108 110 111 113 114 115 116 116 117 118 119 120 121 121 122 123 124 126 128 129 131 132 133 134 134 132 130 126 122 119 116 113 110 106 102 98 94 91 88 85 83 81 79 77 75 72 69
93 93 92 92 92 92 92 93 93 93 93 93 94 94 94 94 94 94 94 95 95 96 97 98 98 98 98 98 98 98 99 100 101 101 102 103 104 105 107 109 111 112 113 114 115 115 116 117 118 119 119 120 121 123 124 125 127 129 130 131 132 133 133 131 129 125 122 119 116 113 110 106 102 98 95 91 88 85 83 81 79 77 75 72 69 66
93 92 92 92 92 92 92 92 92 92 92 92 93 93 93 93 94 94 95 95 96 96 97 97 97 97 97 97 97 97 97 98 100 101 102 104 105 107 108 110 112 113 113 113 114 115 116 117 117 118 119 120 121 123 124 126 128 129 131 132 132 132 131 128 124 121 118 115 112 110 106 102 99 95 91 88 85 82 81 79 77 75 72 70 67 63
92 92 92 91 91 91 91 91 91 91 91 91 92 92 93 93 94 94 95 95 96 96 96 96 96 95 95 95 95 96 97 98 100 102 103 105 107 108 109 111 112 113 113 113 113 114 115 116 117 118 119 120 121 123 125 127 128 130 131 131 131 130 127 124 120 117 114 112 109 106 103 99 95 92 88 85 82 80 79 77 75 73 70 68 64 60
92 92 91 91 91 90 90 90 90 90 90 91 91 92 92 93 93 94 94 94 94 94 94 94 93 93 94 94 95 97 98 100 102 103 105 107 108 109 110 111 112 112 112 112 113 113 114 115 116 117 119 120 122 124 126 127 128 130 130 130 129 126 123 119 116 114 111 109 106 103 99 95 92 88 85 82 80 78 77 75 73 71 68 65 62 57
92 92 92 91 91 91 90 90 90 90 91 91 91 92 92 92 92 92 93 93 92 92 92 92 93 93 94 95 97 98 100 102 104 105 107 108 109 110 110 110 111 111 111 112 112 113 114 115 116 117 119 121 123 125 126 127 128 129 129 128 126 123 119 116 113 111 109 106 103 100 96 92 89 85 82 79 77 76 75 73 71 68 66 62 59 54
92 92 92 92 91 91 91 91 91 91 91 91 91 91 91 91 91 91 92 92 92 92 92 93 94 95 96 98 99 101 102 104 105 106 107 108 109 109 109 109 110 110 110 111 112 113 114 115 116 118 120 122 123 125 127 127 128 128 127 125 122 119 115 113 110 108 106 103 99 96 93 89 85 82 79 77 75 74 73 71 68 66 63 59 55 51
92 92 92 92 92 92 91 92 91 91 91 91 91 91 91 91 91 91 92 92 92 93 94 95 96 97 98 100 102 103 104 105 106 107 107 108 108 108 108 108 109 109 110 111 112 113 114 115 116 118 120 122 124 126 127 127 127 125 123 121 118 115 112 110 108 105 103 100 96 93 89 86 82 79 76 75 74 72 70 68 66 64 60 57 53 49
93 93 92 92 92 92 92 91 91 91 91 91 91 91 91 92 92 92 93 93 94 95 96 97 98 99 100 101 103 104 105 105 106 106 106 106 107 107 107 107 108 109 109 110 112 113 114 116 117 119 121 122 124 125 126 126 125 122 119 116 114 112 111 109 106 103 100 97 93 89 86 82 78 76 74 73 72 70 68 66 64 61 58 54 50 46
92 92 92 92 92 92 91 91 91 91 91 91 91 91 92 93 93 93 94 94 95 96 97 98 99 100 101 102 103 104 104 105 105 105 105 105 105 105 106 107 107 108 109 110 112 113 115 117 118 120 121 123 124 124 124 123 122 119 116 113 111 110 109 107 104 101 97 93 90 86 82 78 75 73 72 71 69 68 66 64 62 59 55 51 47 44
91 91 91 91 91 91 91 91 91 91 91 91 92 92 93 93 94 94 94 95 96 97 98 99 100 100 101 102 102 102 103 103 103 103 103 104 104 105 105 106 107 108 110 111 112 113 115 117 119 120 122 122 123 123 122 120 118 115 113 111 109 107 105 103 100 97 94 90 87 83 79 75 73 71 70 69 67 66 64 62 59 56 52 49 45 42
90 90 90 90 90 90 90 90 91 91 91 92 92 93 93 94 94 94 95 96 96 97 98 98 99 99 100 100 100 101 101 101 101 102 102 103 104 104 105 106 107 109 110 111 113 114 116 117 119 120 121 122 121 120 119 117 114 112 111 109 107 106 103 100 97 94 90 87 83 79 75 72 70 69 68 67 66 64 62 60 57 54 50 46 43 40
88 88 88 88 89 89 90 90 90 91 91 91 92 92 93 93 93 94 94 95 96 96 97 97 97 97 98 98 98 99 99 100 100 101 102 103 103 104 106 107 108 109 111 112 113 115 116 117 118 119 120 120 120 118 116 113 111 110 109 107 105 104 101 98 94 90 87 83 80 76 72 70 69 68 67 65 64 62 60 58 55 51 48 44 41 38
87 87 87 87 88 88 89 89 89 90 90 90 91 91 91 92 92 92 93 94 94 94 95 95 95 95 96 96 96 97 98 99 100 101 102 102 103 105 106 107 109 110 111 112 114 115 116 117 118 118 118 118 117 115 113 111 109 108 107 105 104 101 99 95 91 87 84 80 76 72 69 68 67 66 65 64 62 60 58 55 52 49 45 42 39 36
85 85 86 86 86 87 87 87 87 87 88 88 88 89 89 89 90 90 91 91 92 92 92 92 93 93 94 95 96 96 97 98 99 100 102 103 104 105 107 108 109 110 111 113 114 115 116 116 116 116 115 114 113 112 110 109 107 106 105 103 101 98 95 91 87 84 80 77 73 69 67 66 65 64 63 62 60 58 56 53 50 47 43 40 37 34
83 83 83 83 83 84 84 84 84 84 85 85 85 86 86 87 87 88 88 89 89 90 90 91 91 92 93 94 95 96 97 99 100 101 102 103 104 106 107 108 109 110 111 113 114 115 115 116 115 114 112 110 109 108 108 107 106 104 103 100 98 95 91 88 84 81 77 73 69 67 66 65 64 62 61 60 58 56 54 51 48 45 41 38 35 32
80 79 79 79 80 80 80 80 81 81 81 82 83 83 84 84 85 86 86 87 87 88 89 90 91 92 93 94 96 97 98 99 100 101 103 104 105 106 107 108 109 110 111 112 114 114 115 115 114 113 111 108 106 105 105 105 104 103 101 98 95 91 88 85 81 77 73 70 67 65 64 63 62 61 59 58 56 55 52 49 46 43 39 36 33 30
Wind_Direction
267 268 268 270 270 271 273 274 275 276 278 279 280 281 282 283 284 284 284 285 286 287 288 289 289 290 290 291 292 293 293 294 295 296 296 297 298 298 299 299 300 300 301 302 302 303 304 305 305 306 307 308 308 309 310 310 311 311 312 312 313 313 313 314 314 315 315 316 317 317 318 318 318 318 318 319 319 319 319 319 319 319 319 319 319 319
267 267 269 270 271 272 273 274 276 277 278 280 281 282 282 283 283 284 284 285 286 287 288 289 289 290 290 291 292 293 293 294 295 296 297 297 298 298 299 299 300 301 301 302 303 303 304 305 305 306 307 308 308 309 310 310 311 311 312 312 312 313 313 314 315 315 316 317 317 317 318 318 318 318 318 319 319 319 319 319 319 319 319 319 319 319
267 268 269 270 271 272 274 275 276 278 279 280 281 281 282 282 283 283 284 285 287 287 288 289 289 290 290 291 292 293 294 294 295 296 297 297 298 298 299 299 300 301 301 302 303 303 304 305 306 306 307 308 309 309 310 311 311 311 312 312 313 313 314 314 315 316 317 317 317 318 318 318 318 318 319 319 319 319 319 319 319 319 319 319 319 319
267 268 269 270 272 273 274 276 277 278 279 280 280 281 281 282 282 283 285 286 287 287 288 288 289 290 290 291 292 293 294 295 296 296 297 297 298 298 299 300 300 301 302 302 303 304 304 305 306 307 307 308 309 309 310 310 311 311 312 312 313 314 314 315 316 316 317 317 317 318 318 318 318 319 319 319 319 319 319 319 319 319 319 319 320 320
267 268 269 271 272 273 275 276 277 278 279 279 280 280 281 282 283 284 285 286 287 287 288 288 289 290 290 291 292 293 294 295 296 296 297 297 298 298 299 300 301 301 302 302 303 304 304 305 306 307 308 308 309 310 310 310 311 311 312 313 313 314 315 316 316 317 317 317 317 318 318 318 318 319 319 319 319 319 319 319 319 319 319 320 320 320
268 269 270 271 273 274 275 276 277 277 278 279 279 280 280 282 283 284 285 286 287 287 287 288 289 290 291 292 293 294 295 295 296 296 297 297 298 299 299 300 301 301 302 303 303 304 305 306 306 307 308 309 309 310 310 310 311 312 312 313 314 315 315 316 316 317 317 317 317 318 318 318 318 319 319 319 319 319 319 319 319 319 320 320 320 320
268 269 270 272 273 274 275 276 276 277 277 278 279 280 281 282 283 284 285 286 286 287 287 288 289 290 291 292 293 294 295 295 296 296 296 297 298 299 300 300 301 302 302 303 303 304 305 306 307 308 308 309 309 310 310 310 311 312 313 314 315 315 316 316 316 317 317 317 317 318 318 318 318 318 319 319 319 319 319 319 319 320 320 320 320 320
270 270 271 272 273 274 275 275 275 276 277 278 279 280 281 282 283 284 285 285 286 287 288 288 289 290 291 292 294 294 295 295 295 296 296 297 298 299 300 300 301 302 302 303 304 305 305 306 307 308 308 309 309 310 310 311 312 313 313 314 315 315 316 316 316 317 317 317 318 318 318 318 318 318 318 319 319 319 319 319 320 320 320 320 320 320
270 271 272 272 273 274 274 275 275 276 277 278 279 280 281 282 283 284 285 285 286 287 288 289 290 291 292 293 294 294 295 295 295 296 297 298 299 299 300 301 301 302 303 303 304 305 306 307 307 308 308 309 309 310 311 311 312 313 314 315 315 315 316 316 316 317 317 317 317 318 318 318 318 318 319 319 319 319 319 320 320 320 320 320 320 320
271 271 272 272 273 273 274 274 275 276 277 278 279 280 281 282 283 284 285 285 286 287 288 289 290 291 292 293 293 294 294 295 295 296 297 298 299 299 300 301 301 302 303 304 304 305 306 307 307 308 308 309 310 310 311 312 313 314 314 315 315 315 316 316 316 317 317 317 318 318 318 318 318 318 319 319 319 319 319 320 320 320 320 320 320 320
270 271 272 272 273 273 273 274 275 276 277 278 279 280 281 282 283 284 285 286 287 288 289 290 291 292 293 293 293 294 294 295 296 296 297 298 299 300 300 301 302 302 303 304 305 305 306 307 307 308 309 309 310 311 312 312 313 314 314 315 315 315 316 316 316 317 317 317 317 318 318 318 318 318 319 319 319 319 320 320 320 320 321 321 320 320
270 271 271 272 272 273 273 274 275 277 278 279 280 281 282 282 283 284 285 286 287 288 289 290 291 292 292 293 293 294 294 295 296 297 298 298 299 300 301 301 302 302 303 304 305 306 306 307 308 308 309 310 311 311 312 313 313 314 314 315 315 315 316 316 316 317 317 317 317 318 318 318 318 318 319 319 319 319 320 320 320 321 321 321 320 320
269 270 271 271 272 273 274 275 276 277 278 279 280 281 282 283 284 285 286 287 288 289 290 291 291 292 292 293 293 294 295 295 296 297 298 299 300 300 301 301 302 303 303 304 305 306 307 307 308 309 309 310 311 312 312 313 313 314 314 315 315 315 316 316 316 317 317 317 317 317 318 318 318 318 319 319 319 320 320 320 321 321 321 321 320 320
269 270 270 271 272 273 274 275 276 277 278 280 281 282 283 284 285 286 286 287 288 289 290 291 291 291 292 292 293 294 295 295 296 297 298 299 300 300 301 302 302 303 304 304 305 306 307 307 308 309 310 311 311 312 312 313 313 314 314 315 315 315 316 316 317 317 317 317 317 317 318 318 318 319 319 319 320 320 320 321 321 321 321 321 320 320
268 269 270 271 272 274 275 276 277 278 279 280 281 282 283 284 285 286 287 288 288 289 290 290 291 291 292 292 293 294 295 295 297 298 298 299 300 300 301 302 302 303 304 305 306 306 307 308 309 310 310 311 312 312 312 313 313 314 314 315 315 315 316 316 316 317 317 317 317 317 318 318 318 319 319 319 320 320 321 321 321 321 321 321 320 320
268 269 270 272 273 274 276 277 278 279 280 281 282 283 284 285 286 286 287 288 288 289 290 290 291 291 292 292 293 294 295 296 297 298 299 299 300 300 301 302 303 303 304 305 306 307 307 308 309 310 311 311 312 312 312 313 313 314 314 315 315 315 316 316 316 317 317 317 317 317 318 318 318 319 319 320 320 321 321 322 322 321 321 320 320 320
268 269 271 272 274 275 276 277 278 279 281 282 283 283 284 285 285 286 287 288 288 289 290 290 291 291 292 292 293 294 295 296 297 298 299 299 300 300 301 302 303 304 304 305 306 307 308 309 310 310 311 311 311 312 312 313 313 314 314 315 315 315 316 316 316 316 317 317 317 317 318 318 319 319 319 320 321 321 322 322 321 321 321 321 321 321
269 270 272 273 274 275 276 278 279 280 281 282 283 283 284 285 285 286 287 288 288 289 289 290 290 291 292 293 294 294 295 297 297 298 299 299 300 300 301 302 303 304 305 306 307 308 309 309 310 310 311 311 311 312 312 313 313 314 314 315 315 315 316 316 316 316 316 317 317 317 318 318 319 319 320 321 321 322 322 322 321 321 321 321 321 321
270 271 272 273 274 275 277 278 279 280 281 282 282 283 284 284 285 286 287 287 288 288 289 289 290 291 292 293 294 295 296 297 298 298 299 300 300 301 301 302 303 304 305 306 307 308 309 310 310 310 310 311 311 312 312 313 313 314 314 315 315 315 315 316 316 316 316 317 317 317 318 318 319 320 320 321 321 322 322 321 321 321 321 321 321 321
270 271 272 273 274 276 277 277 278 279 280 281 282 283 283 284 285 286 286 287 287 288 288 289 290 291 292 293 294 295 296 297 298 298 299 300 300 301 302 303 304 305 306 307 308 309 309 310 310 310 310 311 311 312 312 313 313 314 314 314 315 315 315 316 316 316 316 317 317 318 318 319 319 320 321 321 322 322 322 321 321 321 321 321 321 321
271 271 272 273 274 275 276 277 278 279 280 280 281 282 283 284 285 285 286 286 287 288 288 289 290 291 293 294 294 295 296 297 298 298 299 300 300 301 302 303 305 306 307 307 308 309 309 309 309 310 310 310 311 312 312 313 313 314 314 314 315 315 315 315 316 316 316 317 317 318 318 319 320 321 321 322 322 322 321 321 321 321 321 322 322 322
271 271 272 273 274 275 276 277 277 278 279 280 281 282 283 283 284 285 286 286 287 288 289 290 291 292 293 294 295 295 296 297 298 298 299 300 301 302 303 304 305 306 307 308 308 308 308 309 309 309 310 310 311 312 312 313 313 314 314 314 315 315 315 315 316 316 316 317 317 318 319 319 320 321 321 322 322 321 321 321 321 321 322 322 322 322
271 271 272 273 274 274 275 276 277 278 279 280 280 281 282 283 284 285 286 287 287 288 289 290 291 292 293 294 294 295 296 297 298 299 300 301 302 303 304 305 306 307 307 307 308 308 308 308 309 309 310 311 311 312 312 313 313 313 314 314 314 314 315 315 315 316 316 317 318 318 319 320 321 321 321 321 321 321 321 321 321 322 322 322 322 323
271 271 272 273 273 274 275 276 277 278 279 279 280 281 282 283 284 285 286 287 287 288 289 290 291 292 293 294 295 295 296 297 298 299 301 302 303 303 304 305 306 307 307 307 307 307 308 308 309 309 310 311 311 312 312 313 313 313 314 314 314 314 315 315 315 316 317 317 318 319 319 320 321 321 321 321 321 321 321 321 322 322 323 323 323 323
271 271 272 273 273 274 275 276 277 278 279 280 281 282 283 283 284 285 286 287 288 289 290 291 292 293 293 294 295 296 297 298 299 300 301 302 303 304 305 305 306 306 306 306 307 307 307 308 309 309 310 311 311 312 312 312 313 313 313 314 314 314 315 315 316 316 317 317 318 319 320 320 321 321 321 321 321 321 321 322 322 323 323 323 323 324
271 271 272 273 274 275 276 277 277 278 279 280 281 282 283 283 284 285 286 287 288 289 291 292 293 293 294 295 296 297 298 299 300 301 302 303 304 304 305 305 305 306 306 306 306 307 307 308 309 310 310 311 311 312 312 312 313 313 313 313 314 314 314 315 316 316 317 318 319 319 320 321 321 321 321 321 321 321 322 322 323 323 323 324 324 324
271 271 272 273 274 275 276 277 278 278 279 280 281 281 282 283 284 285 287 288 289 290 292 293 293 294 295 296 297 298 299 300 300 301 302 303 304 304 304 305 305 305 305 306 306 307 308 308 309 310 310 310 311 311 312 312 312 312 313 313 313 314 315 315 316 317 317 318 319 320 320 321 321 321 321 321 321 322 322 323 323 324 324 324 324 325
271 271 272 273 274 275 276 277 278 278 279 280 280 281 282 283 284 285 287 288 289 291 292 293 294 295 296 297 298 298 299 300 301 301 302 303 303 304 304 304 304 305 305 306 306 307 308 308 309 309 310 310 311 311 311 312 312 312 312 313 313 314 315 315 316 317 318 318 319 320 321 321 321 321 321 321 322 322 323 323 324 324 324 325 325 326
270 271 272 273 274 275 276 277 277 278 279 280 281 282 282 283 284 286 287 288 289 291 292 293 294 295 296 297 298 299 299 300 300 301 302 303 303 303 303 304 304 304 305 306 306 307 308 308 309 309 310 310 310 311 311 311 311 312 312 313 313 314 315 315 316 317 318 319 320 320 321 321 321 321 321 322 322 323 323 324 324 324 325 325 326 326
271 272 273 274 274 275 276 277 278 279 280 281 282 282 283 284 285 286 287 289 290 291 292 293 294 295 296 297 298 299 299 300 300 301 302 302 302 302 303 303 304 304 305 306 306 307 307 308 309 309 309 310 310 310 311 311 311 312 312 313 314 314 315 316 317 317 318 319 320 321 321 321 321 321 322 322 323 323 324 324 325 325 325 326 326 327
271 272 273 274 274 275 276 277 278 279 280 281 283 284 285 286 287 288 288 289 290 291 293 294 295 295 296 297 298 298 299 299 300 301 301 302 302 302 303 303 304 304 305 306 306 307 307 308 308 309 309 309 310 310 310 311 311 312 312 313 314 314 315 316 317 318 319 320 320 321 321 321 321 322 322 323 323 324 325 325 325 325 326 326 327 328
271 272 273 274 275 276 277 278 279 280 281 282 283 284 286 287 288 289 290 290 291 292 293 294 295 296 296 297 298 298 299 299 299 300 301 301 301 302 302 303 303 304 305 305 306 306 307 308 308 308 309 309 309 310 310 311 311 312 312 313 314 315 315 316 317 318 319 320 321 321 321 321 322 322 323 323 324 325 325 325 325 326 326 327 328 328
270 272 273 274 275 277 278 279 280 281 281 283 284 285 286 287 288 289 290 291 292 292 293 294 295 295 296 297 297 298 298 299 299 299 300 301 301 301 302 303 303 304 304 305 306 306 307 307 308 308 308 309 309 309 310 311 311 312 313 313 314 315 316 317 318 319 320 320 321 321 321 322 322 323 323 324 325 325 325 326 326 326 327 328 328 329
270 271 273 275 276 277 278 279 280 281 282 283 284 285 286 287 288 289 290 290 291 292 293 293 294 295 295 296 297 297 298 298 298 299 300 300 301 301 302 302 303 303 304 305 305 306 306 307 307 308 308 308 309 309 310 311 311 312 313 313 314 315 316 317 318 319 320 321 321 321 322 322 323 323 324 325 325 326 326 326 326 327 327 328 329 329
270 271 273 275 276 277 278 279 280 281 282 283 284 285 286 287 288 288 289 290 291 291 292 293 293 294 295 296 296 297 297 297 298 299 299 300 300 301 301 302 302 303 304 304 305 306 306 307 307 308 308 308 309 309 310 311 311 312 313 314 314 315 317 318 319 320 320 321 321 322 322 323 323 324 325 325 326 326 326 326 327 327 328 329 329 329
270 271 273 274 275 277 278 279 280 281 282 283 284 285 286 286 287 288 288 289 290 291 291 292 293 294 294 295 295 296 296 297 297 298 298 299 299 300 301 301 302 303 304 304 305 306 306 307 307 307 308 308 309 309 310 311 311 312 313 314 315 316 317 318 319 320 321 321 322 322 323 323 324 325 325 326 326 326 326 327 327 328 328 329 330 330
269 271 272 273 274 276 277 278 280 281 282 283 284 284 285 286 286 287 288 289 289 290 291 292 292 293 294 294 295 295 295 296 297 297 298 298 299 300 300 301 302 303 303 304 305 305 306 306 307 307 307 308 308 309 310 311 311 312 313 314 315 317 318 319 320 321 321 321 322 323 323 324 325 325 326 326 326 327 327 327 328 328 329 330 330 330
269 270 271 272 273 275 276 278 279 280 281 282 283 284 284 285 286 287 287 288 289 290 291 291 292 293 293 293 294 294 294 295 296 296 297 297 298 299 300 301 301 302 303 304 304 305 305 306 306 307 307 308 308 309 310 311 311 312 313 315 316 317 318 319 320 321 321 322 323 323 324 324 325 326 326 327 327 327 327 328 328 329 330 330 330 330
268 269 270 271 272 273 275 276 277 278 280 281 282 282 283 284 285 286 287 288 289 289 290 291 291 291 292 292 292 293 293 294 295 295 296 297 298 299 300 301 301 302 303 304 304 305 305 306 306 306 307 308 308 309 310 311 311 313 314 315 317 318 319 320 321 321 322 323 323 324 324 325 326 326 327 327 327 327 328 328 329 330 330 330 330 330
267 268 268 269 271 272 273 274 275 277 278 279 280 281 282 283 284 285 286 287 287 288 288 289 289 290 290 291 291 292 292 293 294 295 296 297 298 299 300 300 301 302 303 303 304 304 305 305 306 306 307 307 308 309 310 311 312 313 315 316 317 319 320 321 321 322 322 323 324 324 325 325 326 327 327 327 327 328 328 329 329 330 330 330 331 331
266 267 267 268 269 270 272 273 274 275 276 277 278 280 281 282 283 283 284 285 286 286 287 287 288 288 289 289 290 291 292 293 294 295 296 297 298 298 299 300 301 302 303 303 304 304 305 305 306 306 307 308 308 309 310 311 313 314 315 317 318 319 320 321 321 322 323 324 324 325 325 326 326 327 327 328 328 328 329 329 330 330 330 331 331 332
265 266 267 268 269 269 271 272 273 274 275 276 277 278 279 280 281 281 282 283 284 284 285 286 286 287 288 289 290 291 292 293 294 295 296 297 298 298 299 300 301 302 303 303 304 304 304 305 306 306 307 308 308 309 310 312 313 315 316 318 319 320 321 321 322 323 323 324 324 325 326 326 327 327 327 328 328 329 329 329 330 330 330 331 332 333
265 265 266 267 268 269 270 271 272 273 273 274 275 276 277 278 279 280 281 281 282 283 284 285 285 286 287 288 289 290 291 292 294 295 296 297 298 298 299 300 301 302 302 303 303 304 304 305 306 306 307 308 309 310 311 313 314 316 317 319 320 321 321 322 322 323 324 324 325 325 326 326 327 327 328 328 329 329 329 330 330 331 331 332 333 334
265 265 266 267 267 268 269 270 271 271 272 273 274 275 276 277 277 278 279 280 281 282 283 284 285 286 287 288 289 290 291 293 294 295 296 297 298 299 299 300 301 302 302 303 303 304 304 305 306 307 307 308 309 311 312 314 315 317 318 319 320 321 322 322 323 323 324 324 325 326 326 327 327 328 328 329 329 329 330 330 331 331 331 333 334 336
264 265 266 267 267 268 269 269 270 271 271 272 273 274 275 276 277 278 279 280 281 282 282 284 285 286 287 288 289 290 292 293 294 295 296 297 298 299 300 300 301 302 302 302 303 304 304 305 306 307 308 309 310 312 313 315 317 318 319 320 321 321 322 322 323 324 324 325 325 326 327 327 328 328 329 329 329 330 330 331 331 331 332 334 335 337
264 265 266 266 267 267 268 269 269 270 271 272 273 274 274 276 277 277 278 279 280 281 282 284 285 286 287 288 289 291 292 293 294 295 296 297 298 299 300 300 301 301 302 302 303 304 305 305 306 307 308 310 311 313 314 316 318 319 320 321 321 322 322 323 323 324 324 325 326 326 327 328 328 329 329 330 330 330 331 331 331 332 333 335 336 338
264 265 265 266 267 267 268 269 269 270 271 272 273 274 275 276 277 278 279 279 280 282 283 284 285 286 287 289 290 291 293 294 295 296 297 298 298 299 300 300 301 301 302 302 303 304 305 306 307 308 309 311 312 314 316 317 319 320 320 321 321 322 322 323 324 324 325 325 326 327 327 328 329 329 330 330 331 331 331 331 332 333 334 336 337 338
263 264 265 266 267 267 268 269 270 270 271 272 273 274 275 276 277 278 279 280 281 282 283 284 286 287 288 290 291 292 294 295 295 296 297 297 298 299 299 300 300 301 302 302 303 304 305 306 307 309 310 312 313 315 317 318 319 320 321 321 321 322 323 323 324 324 325 326 326 327 328 329 330 330 330 331 331 331 331 332 333 334 336 337 338 339
263 264 265 266 266 267 268 269 270 271 271 272 273 274 275 276 277 278 279 280 281 283 284 285 287 288 290 291 292 293 294 295 295 296 296 297 298 298 299 299 300 301 302 303 304 304 306 307 308 310 311 313 315 316 318 319 320 320 321 321 322 322 323 323 324 325 325 326 327 328 329 329 330 330 331 331 331 331 332 332 334 335 336 338 339 339
263 264 265 265 266 267 268 269 270 271 271 272 273 274 275 276 277 278 279 281 282 284 285 287 288 290 291 292 293 293 294 294 295 295 296 297 297 298 299 299 300 301 302 303 304 305 306 308 309 311 313 314 316 317 318 319 320 320 321 321 322 322 323 323 324 325 325 326 327 328 329 330 330 331 331 332 332 332 332 333 334 336 337 339 339 340
262 263 264 265 266 267 268 269 269 270 271 272 273 274 276 277 278 279 281 282 284 285 287 288 289 290 291 292 292 293 293 294 294 295 296 296 297 298 299 299 300 301 302 303 304 306 307 309 311 312 314 316 317 318 319 320 320 321 321 321 322 323 323 324 324 325 326 327 328 329 330 330 331 331 332 332 332 332 333 334 335 337 338 339 340 340
Height
10629 10629 10629 10629 10629 10627 10627 10627 10626 10625 10625 10624 10624 10624 10624 10622 10621 10620 10619 10618 10617 10615 10614 10612 10610 10609 10607 10605 10604 10602 10600 10598 10596 10594 10592 10589 10587 10584 10582 10579 10576 10573 10570 10567 10563 10560 10556 10552 10549 10545 10541 10538 10534 10530 10527 10523 10519 10515 10511 10507 10503 10499 10495 10490 10485 10480 10475 10469 10464 10459 10454 10449 10444 10438 10432 10427 10421 10415 10409 10402 10396 10390 10384 10377 10370 10364
10625 10625 10625 10625 10625 10624 10623 10622 10623 10622 10621 10620 10620 10620 10619 10618 10617 10615 10615 10614 10613 10611 10610 10607 10605 10604 10602 10600 10599 10597 10595 10594 10591 10589 10587 10584 10582 10579 10577 10574 10571 10568 10565 10562 10558 10554 10550 10547 10544 10540 10536 10532 10529 10525 10522 10518 10514 10510 10505 10502 10497 10493 10488 10484 10478 10473 10468 10462 10457 10452 10447 10442 10436 10431 10425 10419 10414 10407 10401 10395 10389 10382 10376 10369 10362 10355
10622 10622 10621 10621 10621 10620 10619 10619 10619 10619 10618 10617 10616 10615 10615 10614 10612 10611 10610 10610 10609 10607 10605 10603 10601 10599 10597 10596 10594 10593 10591 10589 10587 10584 10582 10579 10577 10574 10572 10569 10565 10562 10559 10556 10553 10549 10545 10542 10539 10535 10531 10527 10524 10520 10516 10512 10509 10504 10500 10495 10491 10487 10482 10477 10471 10466 10461 10456 10450 10445 10440 10435 10429 10424 10418 10412 10406 10400 10394 10388 10382 10375 10369 10362 10355 10347
10619 10618 10617 10617 10617 10617 10616 10616 10615 10615 10614 10613 10612 10611 10610 10609 10608 10607 10606 10605 10604 10602 10600 10598 10596 10595 10593 10592 10590 10588 10586 10584 10582 10579 10577 10574 10572 10569 10567 10564 10560 10557 10554 10550 10547 10544 10540 10537 10534 10530 10526 10522 10519 10515 10511 10507 10503 10499 10494 10490 10485 10480 10475 10470 10465 10460 10455 10450 10444 10439 10434 10429 10423 10417 10411 10405 10399 10394 10387 10381 10374 10368 10361 10354 10347 10340
10614 10614 10614 10614 10614 10613 10613 10613 10612 10611 10610 10609 10608 10607 10606 10605 10604 10603 10602 10601 10600 10597 10595 10594 10592 10590 10589 10587 10585 10584 10582 10579 10577 10575 10572 10569 10567 10564 10562 10559 10555 10552 10549 10545 10542 10539 10535 10532 10529 10525 10521 10517 10514 10510 10505 10502 10497 10493 10489 10484 10479 10474 10469 10464 10459 10454 10449 10444 10439 10433 10427 10422 10417 10410 10405 10399 10393 10387 10380 10374 10367 10360 10354 10346 10339 10331
10610 10610 10610 10610 10610 10609 10609 10609 10608 10607 10606 10605 10604 10603 10602 10601 10600 10599 10598 10597 10595 10593 10590 10589 10587 10585 10584 10583 10581 10579 10577 10575 10572 10569 10567 10564 10562 10559 10557 10554 10550 10547 10543 10540 10537 10533 10530 10527 10523 10520 10516 10512 10509 10504 10500 10496 10492 10487 10482 10477 10472 10467 10462 10457 10452 10448 10443 10438 10432 10427 10422 10416 10410 10404 10399 10393 10387 10380 10374 10367 10360 10354 10346 10339 10331 10323
10606 10607 10607 10606 10606 10605 10605 10605 10604 10603 10602 10600 10599 10599 10598 10597 10596 10595 10594 10592 10590 10588 10586 10584 10582 10581 10580 10579 10577 10575 10572 10570 10567 10564 10562 10560 10557 10555 10552 10548 10545 10541 10538 10534 10531 10528 10525 10522 10518 10514 10510 10507 10503 10499 10494 10490 10485 10481 10476 10471 10466 10461 10456 10452 10447 10442 10437 10432 10427 10421 10415 10410 10404 10399 10392 10387 10380 10374 10367 10360 10354 10346 10339 10331 10323 10315
10602 10602 10602 10602 10602 10602 10601 10600 10599 10599 10597 10596 10595 10594 10594 10593 10592 10591 10589 10587 10585 10583 10581 10579 10578 10577 10575 10574 10572 10570 10567 10565 10562 10559 10557 10555 10553 10550 10547 10543 10539 10536 10532 10529 10526 10523 10520 10516 10513 10509 10505 10501 10497 10493 10489 10484 10480 10475 10470 10465 10460 10455 10450 10446 10441 10436 10431 10425 10420 10415 10409 10404 10398 10392 10386 10380 10374 10367 10360 10353 10346 10339 10331 10324 10315 10307
10598 10597 10597 10598 10598 10597 10596 10595 10594 10594 10594 10592 10591 10590 10589 10589 10587 10586 10584 10582 10580 10579 10577 10575 10573 10572 10570 10570 10568 10565 10562 10559 10557 10555 10552 10550 10548 10545 10541 10538 10534 10530 10527 10524 10521 10518 10515 10511 10508 10504 10500 10496 10492 10487 10483 10478 10473 10469 10464 10459 10454 10450 10445 10440 10435 10430 10425 10420 10414 10409 10403 10397 10392 10385 10380 10374 10367 10360 10354 10346 10339 10332 10324 10316 10307 10299
10594 10593 10593 10593 10593 10592 10592 10590 10589 10589 10589 10588 10587 10586 10585 10584 10582 10580 10579 10577 10575 10574 10572 10570 10569 10567 10565 10564 10562 10560 10557 10554 10552 10550 10548 10545 10543 10539 10536 10532 10529 10525 10522 10519 10516 10513 10510 10506 10502 10499 10494 10490 10485 10481 10477 10472 10467 10462 10457 10453 10449 10444 10439 10434 10429 10424 10419 10414 10408 10402 10397 10391 10385 10379 10373 10367 10360 10354 10346 10339 10332 10324 10317 10308 10299 10290
10589 10589 10589 10589 10588 10587 10587 10585 10585 10584 10584 10584 10583 10582 10581 10580 10579 10576 10574 10572 10570 10569 10567 10565 10564 10562 10560 10558 10556 10554 10552 10550 10547 10545 10543 10540 10538 10534 10530 10527 10524 10520 10517 10514 10511 10508 10505 10501 10497 10493 10489 10484 10480 10475 10470 10465 10461 10457 10452 10447 10443 10439 10434 10429 10424 10419 10413 10408 10402 10397 10390 10385 10379 10373 10367 10360 10354 10347 10339 10332 10325 10317 10309 10300 10291 10282
10584 10584 10584 10584 10583 10582 10582 10581 10580 10580 10580 10579 10578 10577 10575 10575 10574 10572 10570 10567 10565 10564 10562 10560 10559 10557 10555 10553 10551 10549 10547 10544 10542 10540 10538 10535 10532 10529 10525 10522 10518 10515 10512 10509 10506 10503 10500 10496 10492 10487 10483 10479 10474 10469 10464 10460 10455 10450 10446 10442 10437 10432 10428 10423 10418 10412 10407 10402 10396 10390 10385 10379 10372 10366 10360 10354 10347 10340 10332 10325 10317 10309 10301 10292 10283 10274
10580 10580 10580 10579 10578 10577 10577 10577 10577 10576 10575 10575 10574 10572 10570 10569 10569 10568 10565 10563 10560 10559 10557 10555 10553 10551 10550 10549 10547 10544 10542 10539 10537 10535 10533 10530 10527 10524 10520 10516 10512 10510 10507 10504 10501 10498 10495 10491 10487 10482 10477 10473 10468 10463 10459 10454 10450 10445 10440 10436 10432 10427 10422 10417 10412 10407 10401 10395 10390 10384 10378 10372 10366 10360 10354 10347 10340 10333 10325 10318 10310 10302 10293 10284 10275 10265
10576 10575 10575 10574 10574 10573 10573 10573 10572 10571 10570 10570 10569 10568 10567 10565 10564 10562 10560 10558 10555 10554 10553 10550 10548 10545 10544 10544 10542 10540 10537 10534 10532 10530 10527 10525 10522 10519 10515 10511 10507 10504 10502 10500 10496 10492 10489 10485 10481 10477 10472 10467 10462 10457 10453 10449 10444 10440 10435 10430 10425 10421 10416 10411 10406 10400 10395 10390 10384 10378 10372 10366 10360 10354 10347 10340 10334 10326 10319 10310 10302 10294 10285 10275 10267 10258
10572 10571 10570 10570 10569 10569 10569 10569 10568 10567 10566 10565 10565 10564 10562 10560 10559 10557 10555 10553 10550 10549 10547 10545 10543 10540 10539 10538 10537 10535 10533 10529 10527 10524 10522 10519 10517 10514 10510 10506 10502 10499 10497 10495 10492 10487 10483 10480 10475 10471 10466 10461 10457 10452 10447 10443 10439 10434 10429 10425 10420 10415 10410 10405 10400 10395 10389 10384 10378 10372 10366 10360 10354 10347 10340 10334 10327 10319 10312 10304 10295 10286 10277 10268 10260 10251
10567 10567 10567 10565 10565 10565 10565 10565 10564 10563 10562 10561 10560 10560 10558 10555 10554 10552 10550 10548 10545 10544 10542 10540 10537 10535 10533 10532 10532 10532 10529 10525 10522 10519 10517 10514 10511 10508 10505 10502 10497 10494 10491 10489 10486 10482 10478 10474 10470 10465 10460 10455 10451 10447 10442 10438 10433 10429 10424 10419 10414 10409 10404 10399 10394 10389 10384 10378 10372 10366 10360 10354 10347 10340 10334 10327 10320 10312 10304 10296 10287 10279 10270 10261 10253 10245
10564 10564 10563 10562 10562 10561 10561 10560 10560 10559 10557 10557 10556 10555 10553 10551 10549 10547 10545 10543 10541 10539 10537 10535 10532 10530 10527 10526 10526 10526 10525 10522 10517 10514 10512 10509 10505 10502 10500 10497 10493 10489 10486 10484 10480 10477 10473 10469 10464 10459 10455 10450 10445 10441 10437 10432 10428 10423 10419 10414 10409 10404 10399 10394 10389 10383 10378 10372 10366 10360 10354 10347 10341 10334 10327 10320 10313 10305 10297 10289 10280 10272 10263 10255 10247 10239
10560 10560 10559 10559 10558 10557 10557 10556 10555 10554 10554 10552 10551 10550 10548 10546 10544 10542 10540 10538 10535 10534 10531 10529 10527 10525 10524 10522 10520 10519 10519 10517 10513 10509 10506 10503 10500 10497 10494 10492 10489 10485 10481 10479 10475 10471 10467 10463 10459 10454 10449 10445 10440 10435 10432 10427 10423 10418 10413 10408 10404 10399 10394 10388 10383 10377 10372 10366 10360 10354 10347 10341 10335 10328 10321 10314 10306 10299 10290 10282 10274 10265 10257 10249 10240 10232
10556 10556 10555 10555 10554 10553 10552 10552 10550 10550 10549 10548 10547 10545 10543 10541 10539 10537 10535 10533 10530 10529 10526 10524 10522 10520 10519 10518 10516 10514 10514 10512 10508 10504 10501 10498 10495 10491 10489 10487 10484 10480 10476 10473 10470 10466 10462 10457 10453 10449 10444 10440 10435 10431 10427 10422 10417 10413 10408 10403 10398 10393 10388 10382 10377 10372 10366 10360 10354 10348 10342 10335 10329 10322 10315 10307 10300 10292 10284 10275 10267 10259 10250 10243 10235 10227
10552 10552 10551 10550 10550 10549 10548 10547 10546 10545 10545 10543 10542 10540 10538 10536 10534 10532 10530 10527 10525 10524 10521 10520 10518 10516 10515 10514 10511 10509 10507 10506 10503 10499 10495 10493 10490 10486 10484 10482 10479 10474 10470 10467 10464 10461 10457 10452 10447 10443 10439 10435 10430 10426 10422 10417 10412 10407 10403 10398 10393 10388 10382 10377 10372 10366 10360 10354 10348 10342 10335 10329 10322 10315 10309 10301 10294 10286 10277 10269 10261 10253 10245 10237 10229 10222
10547 10547 10546 10546 10545 10545 10543 10542 10542 10541 10540 10539 10537 10535 10533 10531 10529 10527 10525 10523 10520 10518 10516 10515 10514 10512 10510 10509 10506 10504 10502 10500 10498 10494 10490 10487 10484 10481 10479 10477 10474 10470 10465 10462 10459 10455 10452 10447 10443 10438 10434 10430 10425 10421 10417 10412 10407 10402 10397 10392 10387 10382 10377 10372 10366 10360 10355 10349 10342 10336 10330 10323 10317 10310 10302 10295 10287 10280 10271 10263 10255 10247 10240 10232 10224 10217
10543 10542 10541 10541 10541 10540 10539 10538 10537 10537 10535 10534 10532 10530 10528 10526 10524 10522 10519 10517 10515 10514 10512 10510 10509 10508 10506 10504 10501 10499 10497 10495 10493 10489 10486 10482 10478 10475 10473 10472 10469 10465 10460 10457 10454 10450 10446 10442 10438 10434 10429 10425 10420 10416 10411 10407 10402 10397 10392 10387 10382 10377 10372 10366 10360 10355 10349 10343 10337 10330 10324 10317 10310 10304 10297 10289 10282 10274 10265 10257 10249 10242 10234 10227 10219 10212
10538 10537 10537 10537 10537 10535 10534 10534 10532 10532 10530 10529 10527 10525 10524 10522 10520 10517 10515 10513 10511 10509 10507 10506 10505 10504 10502 10499 10497 10494 10492 10490 10488 10485 10481 10477 10473 10469 10467 10466 10464 10459 10455 10452 10449 10445 10441 10436 10432 10429 10425 10420 10415 10410 10406 10402 10397 10392 10387 10382 10377 10372 10367 10361 10355 10349 10344 10337 10331 10325 10319 10312 10305 10299 10291 10284 10275 10267 10259 10252 10244 10237 10229 10222 10215 10207
10533 10532 10532 10532 10531 10530 10530 10529 10528 10527 10525 10524 10523 10521 10519 10517 10515 10513 10510 10509 10507 10505 10503 10502 10500 10498 10495 10494 10491 10489 10486 10484 10482 10480 10476 10472 10469 10465 10463 10462 10459 10455 10450 10446 10444 10441 10436 10432 10427 10423 10420 10415 10410 10405 10401 10397 10392 10387 10382 10377 10372 10367 10361 10355 10350 10344 10338 10332 10326 10320 10313 10307 10300 10293 10285 10277 10269 10261 10254 10246 10239 10232 10224 10217 10210 10204
10529 10527 10527 10527 10527 10526 10525 10524 10523 10522 10520 10519 10518 10517 10515 10513 10510 10509 10506 10504 10502 10500 10499 10497 10495 10492 10490 10488 10485 10483 10480 10479 10477 10475 10471 10467 10464 10460 10457 10457 10455 10450 10445 10441 10438 10435 10432 10427 10422 10418 10414 10410 10405 10400 10396 10391 10387 10382 10377 10372 10367 10362 10356 10350 10345 10339 10333 10327 10320 10314 10308 10302 10295 10287 10279 10272 10264 10255 10249 10241 10234 10227 10220 10213 10206 10200
10524 10523 10523 10522 10522 10522 10521 10520 10519 10517 10515 10515 10514 10512 10510 10508 10506 10504 10501 10499 10497 10496 10494 10492 10490 10487 10485 10483 10480 10478 10475 10473 10471 10469 10467 10464 10460 10455 10452 10451 10449 10446 10441 10437 10433 10430 10427 10422 10417 10412 10409 10405 10400 10395 10391 10386 10382 10377 10372 10367 10362 10357 10351 10345 10340 10334 10328 10322 10315 10309 10303 10296 10289 10282 10274 10265 10258 10250 10244 10236 10229 10222 10215 10209 10202 10197
10519 10519 10519 10519 10518 10517 10517 10515 10514 10512 10511 10510 10509 10508 10506 10504 10502 10499 10496 10494 10493 10492 10490 10487 10484 10482 10480 10478 10475 10473 10470 10468 10465 10464 10462 10460 10456 10452 10448 10445 10444 10441 10437 10432 10428 10425 10422 10418 10413 10407 10403 10399 10395 10391 10386 10381 10377 10372 10367 10362 10357 10352 10346 10340 10334 10329 10323 10317 10311 10304 10298 10291 10284 10275 10268 10260 10253 10245 10239 10231 10224 10217 10211 10205 10199 10193
10515 10514 10514 10514 10514 10513 10512 10510 10508 10507 10505 10505 10504 10503 10501 10500 10498 10495 10492 10490 10489 10488 10485 10482 10480 10477 10475 10473 10470 10468 10466 10464 10461 10459 10457 10455 10452 10447 10444 10442 10439 10435 10432 10427 10423 10419 10417 10414 10409 10404 10399 10394 10390 10386 10382 10377 10372 10367 10362 10357 10352 10347 10341 10335 10329 10324 10318 10312 10306 10300 10293 10285 10278 10270 10262 10255 10248 10240 10234 10227 10220 10214 10207 10201 10195 10190
10510 10510 10510 10510 10509 10509 10507 10505 10503 10502 10500 10499 10499 10497 10496 10495 10494 10492 10489 10486 10485 10483 10480 10477 10475 10474 10471 10469 10466 10463 10461 10459 10457 10455 10454 10451 10447 10442 10439 10437 10434 10430 10427 10423 10418 10413 10410 10407 10405 10402 10396 10390 10385 10380 10376 10372 10367 10362 10357 10352 10347 10342 10336 10330 10325 10319 10313 10307 10301 10295 10287 10280 10272 10265 10257 10250 10243 10236 10229 10222 10215 10209 10204 10198 10192 10187
10506 10505 10505 10505 10504 10504 10502 10500 10499 10497 10495 10494 10493 10492 10490 10490 10489 10487 10484 10482 10480 10478 10475 10473 10470 10469 10467 10464 10462 10459 10455 10453 10452 10452 10450 10447 10442 10437 10435 10432 10429 10425 10422 10419 10415 10409 10403 10399 10398 10396 10393 10387 10381 10375 10371 10367 10362 10357 10352 10347 10342 10336 10331 10325 10320 10314 10308 10302 10296 10289 10282 10275 10267 10259 10252 10245 10238 10231 10225 10218 10212 10205 10200 10194 10189 10184
10502 10502 10500 10500 10499 10498 10497 10495 10494 10493 10491 10490 10489 10487 10486 10485 10484 10482 10480 10477 10475 10473 10471 10469 10466 10464 10462 10460 10458 10455 10451 10448 10447 10447 10446 10443 10438 10434 10430 10428 10424 10419 10416 10415 10412 10407 10400 10394 10390 10388 10386 10382 10377 10371 10366 10362 10357 10352 10347 10342 10336 10331 10326 10321 10315 10310 10304 10297 10291 10284 10277 10269 10262 10254 10247 10240 10234 10227 10220 10214 10208 10202 10197 10191 10186 10182
10499 10497 10496 10495 10494 10493 10492 10491 10490 10489 10487 10485 10484 10483 10482 10480 10479 10477 10474 10472 10470 10469 10467 10464 10462 10460 10457 10456 10454 10451 10448 10444 10442 10441 10440 10438 10434 10429 10425 10424 10420 10415 10412 10409 10407 10404 10399 10392 10386 10382 10379 10375 10372 10367 10362 10357 10352 10347 10342 10337 10332 10326 10320 10315 10310 10305 10299 10293 10286 10279 10271 10264 10257 10250 10243 10236 10229 10223 10217 10210 10204 10199 10194 10189 10184 10179
10495 10493 10491 10490 10489 10488 10487 10486 10485 10484 10483 10482 10480 10479 10477 10476 10474 10472 10470 10467 10466 10464 10462 10460 10458 10455 10453 10451 10449 10447 10444 10441 10439 10437 10435 10433 10429 10425 10421 10419 10415 10412 10407 10404 10401 10398 10394 10389 10384 10379 10374 10369 10365 10362 10357 10352 10347 10342 10337 10332 10327 10321 10315 10310 10305 10300 10294 10287 10280 10274 10266 10259 10252 10245 10239 10232 10225 10219 10213 10207 10201 10195 10190 10185 10181 10176
10490 10489 10487 10486 10485 10484 10483 10482 10481 10480 10479 10477 10476 10475 10474 10472 10470 10467 10465 10464 10462 10460 10459 10457 10454 10452 10449 10447 10444 10442 10439 10437 10435 10433 10431 10429 10425 10420 10417 10414 10411 10408 10404 10400 10395 10392 10389 10384 10379 10375 10370 10364 10359 10355 10352 10348 10343 10337 10331 10327 10322 10317 10311 10306 10301 10295 10289 10282 10275 10268 10261 10254 10247 10240 10234 10228 10221 10215 10209 10203 10198 10192 10188 10183 10179 10174
10486 10485 10484 10482 10481 10480 10479 10477 10477 10475 10474 10473 10472 10470 10469 10467 10465 10463 10461 10459 10457 10456 10454 10452 10450 10448 10446 10444 10440 10437 10434 10431 10430 10429 10427 10424 10420 10417 10413 10409 10406 10404 10400 10395 10391 10387 10384 10379 10374 10370 10365 10360 10354 10349 10345 10342 10338 10333 10327 10322 10317 10312 10307 10302 10297 10291 10284 10277 10269 10262 10256 10249 10242 10236 10230 10224 10217 10212 10205 10200 10195 10190 10185 10180 10176 10172
10483 10481 10480 10479 10477 10476 10474 10474 10472 10471 10470 10469 10467 10465 10464 10462 10460 10459 10457 10455 10454 10452 10450 10447 10445 10444 10442 10440 10437 10434 10430 10427 10425 10424 10422 10419 10416 10413 10409 10405 10402 10399 10396 10392 10387 10383 10379 10375 10370 10365 10360 10356 10350 10344 10339 10335 10330 10327 10322 10317 10312 10307 10302 10297 10292 10286 10279 10272 10265 10258 10251 10245 10238 10232 10225 10220 10214 10208 10202 10197 10192 10187 10182 10178 10174 10169
10479 10477 10476 10475 10474 10472 10472 10470 10469 10467 10466 10464 10462 10460 10459 10457 10455 10454 10452 10450 10449 10447 10445 10443 10441 10439 10437 10435 10433 10430 10428 10425 10422 10420 10417 10414 10412 10409 10405 10401 10397 10394 10392 10389 10384 10379 10374 10370 10365 10360 10355 10351 10347 10342 10336 10330 10325 10320 10315 10312 10308 10304 10299 10292 10287 10280 10274 10267 10260 10253 10247 10240 10234 10228 10222 10216 10210 10205 10199 10194 10189 10185 10180 10175 10172 10167
10474 10473 10472 10470 10470 10470 10469 10467 10465 10464 10462 10460 10458 10456 10454 10452 10451 10449 10448 10446 10444 10442 10440 10439 10437 10435 10433 10431 10429 10427 10424 10422 10419 10415 10413 10410 10407 10404 10401 10397 10393 10390 10387 10384 10380 10375 10370 10366 10360 10355 10350 10345 10341 10337 10332 10327 10322 10317 10312 10307 10303 10299 10295 10289 10283 10276 10269 10262 10255 10249 10242 10236 10230 10225 10219 10213 10207 10202 10196 10191 10187 10182 10178 10174 10169 10165
10470 10469 10468 10467 10467 10467 10465 10464 10462 10460 10459 10457 10454 10452 10450 10449 10447 10445 10443 10442 10440 10438 10437 10435 10433 10430 10429 10427 10424 10422 10420 10417 10414 10412 10409 10405 10403 10400 10397 10394 10389 10385 10382 10379 10375 10372 10367 10362 10357 10352 10347 10342 10337 10332 10327 10322 10319 10314 10309 10303 10298 10293 10288 10283 10277 10270 10264 10257 10251 10245 10238 10232 10227 10221 10215 10210 10204 10199 10193 10188 10184 10180 10175 10172 10167 10164
10465 10465 10464 10464 10464 10463 10462 10460 10458 10456 10454 10452 10450 10449 10447 10445 10443 10441 10439 10437 10436 10434 10432 10430 10429 10427 10424 10422 10420 10418 10415 10413 10410 10407 10404 10402 10399 10395 10393 10389 10385 10382 10377 10374 10370 10366 10362 10357 10352 10347 10343 10339 10334 10328 10323 10319 10314 10310 10305 10299 10294 10287 10282 10277 10272 10265 10259 10252 10247 10241 10235 10229 10224 10218 10213 10207 10202 10196 10191 10186 10182 10177 10174 10170 10165 10162
10461 10460 10460 10460 10459 10459 10457 10455 10454 10452 10450 10449 10447 10445 10442 10440 10439 10437 10435 10433 10432 10430 10429 10427 10425 10422 10420 10417 10415 10414 10411 10409 10405 10403 10400 10397 10395 10392 10388 10385 10381 10377 10374 10369 10365 10361 10357 10353 10348 10343 10337 10333 10328 10323 10318 10314 10310 10306 10302 10296 10290 10284 10277 10272 10267 10262 10255 10249 10242 10237 10231 10226 10220 10215 10210 10204 10199 10194 10189 10184 10180 10175 10172 10168 10164 10160
10457 10456 10455 10455 10454 10454 10452 10451 10449 10448 10446 10444 10442 10440 10439 10437 10435 10433 10431 10429 10427 10425 10424 10422 10420 10417 10415 10412 10410 10409 10407 10404 10402 10399 10396 10393 10390 10387 10384 10380 10377 10373 10369 10365 10360 10355 10352 10348 10344 10339 10334 10329 10324 10319 10314 10309 10305 10300 10297 10292 10286 10279 10272 10265 10260 10256 10251 10245 10239 10234 10228 10223 10217 10212 10207 10202 10197 10191 10187 10182 10178 10174 10170 10166 10162 10159
10452 10451 10450 10450 10449 10449 10447 10446 10444 10442 10440 10439 10437 10435 10434 10432 10430 10429 10427 10425 10423 10421 10419 10417 10415 10413 10411 10408 10405 10403 10401 10399 10397 10395 10392 10389 10385 10382 10379 10375 10372 10369 10365 10360 10356 10350 10346 10342 10339 10334 10330 10325 10320 10315 10309 10304 10300 10295 10291 10287 10281 10275 10268 10261 10255 10250 10245 10240 10235 10230 10225 10220 10215 10210 10205 10200 10194 10189 10185 10180 10176 10172 10169 10165 10161 10157
10446 10445 10445 10445 10444 10444 10442 10440 10439 10437 10435 10434 10432 10430 10429 10427 10426 10424 10422 10420 10418 10416 10414 10412 10411 10409 10407 10404 10402 10399 10397 10394 10392 10390 10387 10384 10381 10378 10374 10371 10367 10364 10360 10356 10352 10347 10342 10337 10332 10328 10324 10320 10316 10311 10306 10300 10295 10290 10285 10280 10276 10270 10265 10259 10253 10247 10242 10236 10231 10227 10222 10217 10212 10207 10202 10197 10192 10187 10182 10178 10174 10170 10167 10163 10159 10156
10440 10440 10440 10439 10439 10438 10437 10434 10432 10431 10430 10429 10427 10425 10424 10422 10421 10420 10418 10416 10414 10412 10410 10409 10407 10405 10402 10400 10397 10395 10392 10390 10387 10385 10382 10379 10376 10373 10370 10367 10363 10359 10355 10350 10347 10343 10339 10334 10328 10323 10318 10314 10310 10307 10302 10297 10292 10286 10280 10275 10270 10265 10259 10254 10249 10244 10239 10233 10228 10223 10219 10215 10210 10205 10199 10194 10189 10185 10180 10176 10172 10169 10165 10161 10158 10155
10434 10434 10434 10434 10433 10432 10430 10429 10427 10425 10425 10424 10422 10420 10419 10418 10416 10415 10414 10412 10409 10407 10405 10404 10403 10401 10399 10395 10392 10390 10388 10385 10382 10380 10377 10374 10371 10368 10365 10362 10358 10354 10350 10346 10342 10338 10334 10329 10324 10319 10314 10309 10305 10300 10297 10293 10288 10282 10276 10270 10265 10260 10255 10250 10245 10240 10235 10230 10225 10220 10216 10212 10207 10202 10197 10192 10187 10182 10179 10175 10170 10167 10163 10160 10157 10154
10429 10429 10429 10428 10427 10426 10425 10423 10422 10420 10420 10418 10417 10415 10414 10413 10412 10410 10409 10407 10405 10404 10401 10400 10399 10397 10394 10391 10389 10386 10384 10381 10377 10375 10372 10369 10366 10363 10360 10356 10353 10349 10345 10342 10338 10334 10329 10324 10320 10315 10310 10305 10300 10295 10290 10287 10282 10277 10272 10266 10260 10255 10250 10245 10240 10236 10232 10227 10222 10218 10214 10209 10204 10199 10194 10190 10185 10181 10177 10173 10169 10165 10162 10159 10155 10152
10424 10424 10424 10423 10422 10420 10419 10417 10416 10415 10415 10413 10412 10410 10410 10409 10407 10406 10404 10402 10400 10399 10397 10395 10394 10392 10389 10387 10384 10382 10380 10377 10373 10370 10367 10364 10361 10358 10355 10352 10348 10344 10340 10337 10334 10329 10325 10320 10316 10312 10308 10303 10297 10290 10285 10281 10277 10273 10267 10262 10257 10252 10246 10241 10237 10232 10228 10224 10219 10215 10211 10206 10202 10197 10192 10187 10183 10179 10175 10170 10167 10164 10160 10157 10154 10151
10419 10419 10418 10417 10417 10415 10414 10412 10411 10410 10410 10409 10407 10406 10405 10404 10403 10402 10400 10397 10396 10395 10393 10391 10389 10387 10384 10382 10379 10377 10375 10372 10369 10365 10363 10360 10357 10354 10350 10347 10343 10340 10336 10332 10328 10324 10320 10315 10311 10308 10305 10301 10295 10289 10281 10276 10272 10267 10263 10258 10253 10248 10243 10237 10233 10229 10225 10220 10216 10212 10208 10204 10200 10195 10190 10185 10181 10177 10173 10169 10165 10162 10159 10156 10153 10150
10414 10414 10413 10412 10411 10410 10408 10407 10407 10405 10405 10404 10403 10402 10400 10399 10398 10397 10395 10394 10392 10390 10388 10386 10384 10382 10379 10377 10374 10372 10369 10367 10364 10361 10358 10355 10352 10349 10345 10342 10339 10335 10331 10327 10322 10319 10315 10310 10305 10301 10298 10296 10293 10287 10280 10273 10267 10262 10257 10253 10249 10244 10239 10234 10230 10225 10222 10217 10214 10209 10205 10201 10197 10192 10188 10184 10179 10175 10171 10167 10164 10160 10157 10155 10152 10150
10409 10408 10407 10407 10405 10404 10403 10402 10402 10401 10400 10399 10398 10397 10396 10394 10393 10391 10390 10389 10387 10385 10383 10381 10379 10377 10375 10372 10369 10367 10364 10362 10360 10357 10354 10350 10348 10345 10341 10337 10334 10330 10327 10322 10317 10313 10310 10305 10300 10295 10290 10288 10286 10283 10278 10271 10264 10258 10252 10248 10244 10240 10235 10230 10226 10222 10219 10215 10211 10207 10203 10199 10194 10190 10186 10182 10177 10173 10169 10165 10162 10159 10156 10154 10151 10149